Location: Morgantown
(40.9734°N, 80.6323°W)
Time: 00:22:15
(UTC+00:00)

ERS-2 - Pass Details

Date: 29 October 2020
Orbit: 493 x 497 km, 98.6° (Epoch: 03 December)

Event Time Altitude Azimuth Distance (km) Brightness Sun altitude
Rises 23:30:57 0° 3° (N) 2,585 5.7 -13.7°
Reaches altitude 10° 23:33:10 10° 353° (N) 1,698 4.8 -14.1°
Maximum altitude 23:36:25 31° 290° (WNW) 893 4.1 -14.7°
Drops below altitude 10° 23:39:38 10° 227° (SW) 1,688 5.6 -15.3°
Sets 23:41:51 0° 217° (SW) 2,566 6.4 -15.7°
